Regional Weather Roundup
Issued by NWS

Home | Current Version | Previous Version | Graphics & Text | Print | Product List | Glossary On
Versions: 1 2 3 4 5 6 7 8 9 10 11 12 13 14 15 16 17 18 19 20 21 22 23 24 25 26 27 28 29 30 31 32 33 34 35 36 37 38 39 40 41 42 43 44 45 46 47 48 49 50
845
ASUS44 KJAN 200310
RWRMS

MISSISSIPPI HOURLY WEATHER ROUNDUP
NATIONAL WEATHER SERVICE JACKSON MS
900 PM CST FRI DEC 19 2014

NOTE: "FAIR: INDICATES FEW OR NO CLOUDS BELOW 12,000 FEET WITH NO
SIGNIFICANT WEATHER AND/OR OBSTRUCTIONS TO VISIBILITY.

MSZ001>002-007>008-010>013-018>021-025>028-034>036-200400-
NORTHWEST MISSISSIPPI

CITY           SKY/WX    TMP DP  RH WIND       PRES   REMARKS
CLARKSDALE     CLOUDY    43  39  87 N7        30.24S
CLEVELAND      CLOUDY    44  40  88 NE8       30.21S
GREENWOOD      CLOUDY    45  44  97 N6        30.21S
GREENVILLE     CLOUDY    45  40  82 NE8       30.20S
GRENADA        CLOUDY    41  37  87 CALM      30.21F
OLIVE BRANCH   CLOUDY    39  37  93 NE6       30.24R WCI  35
OXFORD         MOCLDY    37  34  87 NE6       30.24S WCI  33
TUNICA         CLOUDY    43  37  81 NE5       30.25S
$$

MSZ003>006-009-014>017-022>024-029>033-037>039-200400-
NORTHEAST MISSISSIPPI

CITY           SKY/WX    TMP DP  RH WIND       PRES   REMARKS
COLUMBUS AFB   LGT RAIN  42  40  93 N9        30.21R
CORINTH        MIX PCPN  41  34  75 CALM      30.23R
GOLDN TRIANGLE CLOUDY    43  39  87 N8        30.19R
STARKVILLE     CLOUDY    41  41 100 N3        30.21R
TUPELO         CLOUDY    41  35  79 NE7       30.22F
$$

MSZ040-058-200400-
CENTRAL MISSISSIPPI

CITY           SKY/WX    TMP DP  RH WIND       PRES   REMARKS
JACKSON INTL   CLOUDY    46  43  89 N8        30.17R
JACKSON HAWKNS CLOUDY    46  43  89 N6        30.17R
MERIDIAN KEY   LGT RAIN  44  42  93 NE5       30.15F
MERIDIAN NAS   LGT RAIN  43  42  97 E7        30.17F
RAYMOND        CLOUDY    45  41  87 N5        30.18R
VICKSBURG      CLOUDY    47  44  90 N12       30.19R
$$

MSZ059>079-200400-
SOUTH MISSISSIPPI

CITY           SKY/WX    TMP DP  RH WIND       PRES   REMARKS
HATTIESBURG    RAIN      47  45  93 E8        30.14F
MCCOMB         LGT RAIN  46  44  93 E8        30.11S FOG
NATCHEZ        CLOUDY    46  43  87 N7        30.15R
PINE BELT      CLOUDY    45  43  93 E6        30.14S
$$

MSZ080>082-200400-
COASTAL MISSISSIPPI

CITY           SKY/WX    TMP DP  RH WIND       PRES   REMARKS
BILOXI         CLOUDY    48  48 100 NE10      30.10R
PASCAGOULA     CLOUDY    48  47  96 NE7       30.11S
GULFPORT       CLOUDY    48  46  93 NE10      30.10R
$$



USA.gov is the U.S. government's official web portal to all federal, state and local government web resources and services.